GFSMW_con_lsi_057.txt.gz
Lid_Strength_Index
11 12 12 10 10 9 9 9 8 8 8 8 9 9 11 11 10 10 10 10 11 11 11 12 12 12 12 13 13 14 12 14 14 13 13 14 15 16 16 17 16 16 15
13 12 12 11 10 9 9 9 9 8 8 8 11 11 12 13 12 11 12 12 13 13 13 13 14 14 14 14 15 15 16 16 16 12 13 14 13 14 16 17 16 17 16
12 13 12 11 10 10 9 9 9 8 8 12 13 13 13 13 13 13 13 13 14 14 14 14 15 15 15 16 16 16 16 17 17 16 14 17 16 17 14 17 17 17 17
12 13 12 11 10 10 9 9 9 8 11 11 12 12 12 13 14 14 14 15 15 15 15 15 16 16 16 16 17 16 17 17 18 17 17 18 18 19 20 18 18 17 17
12 13 13 11 11 10 10 9 9 10 11 11 11 12 13 15 15 15 15 17 16 16 16 16 16 17 16 17 17 17 17 17 18 18 18 18 19 19 20 21 19 18 18
13 13 13 11 11 11 10 9 9 11 12 11 12 13 15 16 16 16 16 17 17 17 17 17 17 17 17 17 17 17 17 17 17 18 18 18 19 20 20 21 20 20 18
15 15 14 12 12 12 10 9 10 13 12 12 13 14 15 15 16 16 17 17 17 18 18 17 17 17 17 17 17 18 18 18 18 18 18 18 18 18 19 19 20 20 19
15 14 13 12 12 11 11 10 11 14 14 14 14 14 15 15 15 16 16 17 17 18 18 18 18 18 18 18 18 18 18 19 19 19 19 18 18 18 18 19 20 21 20
16 15 14 13 12 12 12 11 13 14 14 14 15 15 15 16 16 18 18 18 18 18 18 18 18 18 18 18 19 19 19 19 19 19 19 19 19 19 19 18 18 19 22
16 15 14 13 13 13 14 14 14 14 14 15 15 15 16 16 17 17 18 18 18 18 18 18 18 19 19 19 19 20 19 20 20 19 19 19 19 19 19 19 19 19 20
16 16 15 15 14 15 16 16 15 15 15 15 16 16 16 17 17 17 18 18 18 18 18 18 19 19 19 19 20 20 20 20 20 20 20 19 19 20 20 19 19 19 20
16 16 16 16 16 16 16 17 17 16 15 15 16 17 17 17 17 18 18 18 18 18 19 19 19 19 19 20 19 20 20 20 20 20 20 20 19 20 20 20 20 20 19
17 17 17 17 16 16 16 17 16 16 16 16 16 17 17 18 18 18 18 18 19 19 19 19 19 19 19 19 19 19 19 20 20 19 19 19 19 20 20 20 20 19 18
16 17 17 17 16 16 16 16 17 17 17 17 17 17 17 17 17 18 18 19 19 19 19 19 19 19 19 19 18 19 19 20 20 19 19 19 19 19 19 19 19 18 18
16 16 16 17 16 16 16 16 16 17 17 17 17 17 17 17 17 18 19 19 19 19 19 19 19 19 19 18 18 18 19 19 19 19 18 18 18 16 16 18 18 17 17
15 15 16 16 16 16 16 16 16 17 17 17 17 17 17 18 18 19 19 19 19 19 19 19 19 19 18 16 15 17 18 18 19 19 18 18 17 15 14 13 12 13 17
13 14 15 15 16 16 16 16 16 17 17 17 17 18 17 18 18 18 19 19 19 19 19 19 18 18 18 15 14 14 18 18 18 18 17 17 16 17 17 14 11 10 9
13 13 14 14 15 15 16 16 16 17 17 17 18 17 18 18 18 18 19 19 18 18 18 18 18 18 18 14 13 13 17 18 18 17 17 17 16 16 16 16 15 14 13
11 12 13 13 15 15 16 17 17 17 17 17 17 17 17 17 18 18 18 18 18 18 18 17 17 17 17 14 13 13 16 16 16 16 17 16 16 13 11 13 15 14 13
13 13 14 15 15 16 16 17 18 18 17 17 16 16 16 17 17 17 17 17 17 17 17 17 17 17 16 14 12 12 15 17 16 17 16 13 14 12 10 12 15 15 13
15 15 15 16 16 17 17 18 18 17 16 16 16 16 16 16 16 16 17 17 17 17 17 17 17 17 17 17 12 11 15 16 17 16 15 14 11 9 8 8 11 12 10
16 16 17 17 17 17 17 17 17 16 16 16 16 16 16 15 15 15 15 15 15 16 16 17 17 18 18 17 14 12 11 12 15 15 14 14 10 9 8 8 7 7 7
16 16 17 17 18 18 17 17 17 15 15 15 15 15 14 14 14 15 15 15 16 16 17 18 17 17 19 18 14 13 10 9 10 13 12 10 9 8 8 7 6 7 11
19 19 18 19 20 19 18 18 18 17 16 16 17 17 16 17 16 15 16 17 18 18 18 18 18 20 21 20 18 16 15 12 10 9 11 10 8 8 8 10 10 10 11
20 19 18 19 20 20 21 21 20 18 18 19 20 20 20 19 21 20 19 18 19 16 18 18 19 21 21 19 16 17 20 21 15 15 21 20 16 13 12 12 12 12 12
20 19 19 19 21 21 23 23 23 21 20 21 21 21 20 21 20 20 22 16 16 14 14 15 18 22 15 13 12 11 10 9 9 15 15 15 15 14 14 14 14 14 14

GFSMW_con_lsi_060.txt.gz
Lid_Strength_Index
10 11 12 12 10 10 9 9 8 8 7 7 7 8 9 10 10 10 10 9 9 9 9 9 10 11 12 12 10 11 11 13 13 14 15 15 17 17 17 17 17 17 16
12 12 13 12 10 10 9 9 6 8 7 6 9 10 11 12 12 11 12 11 10 10 11 11 13 14 13 13 12 12 15 16 16 14 14 16 14 15 17 18 17 18 17
11 12 13 12 11 10 9 9 7 8 7 9 12 12 12 12 13 13 13 13 12 12 13 14 14 15 14 13 15 15 14 17 17 16 13 16 15 17 16 18 18 18 18
11 12 12 13 11 10 9 9 8 7 8 11 11 10 11 12 12 13 14 14 14 14 15 15 16 16 16 16 16 16 17 17 18 18 17 19 18 19 21 19 19 19 19
12 12 12 12 11 10 10 9 9 8 10 11 10 10 11 14 14 15 15 16 15 16 16 16 17 17 17 17 17 17 17 17 18 18 19 19 19 20 21 21 21 20 19
13 13 13 12 12 11 10 9 10 11 12 11 11 11 14 14 14 15 16 16 16 18 17 17 17 17 17 17 18 18 17 18 18 18 18 19 20 21 21 22 22 21 19
14 14 14 13 12 11 10 9 9 11 11 12 11 12 13 13 13 15 16 17 17 19 18 18 18 18 18 18 18 18 18 18 18 19 19 18 19 19 20 21 21 21 20
14 15 15 13 12 12 10 9 9 11 12 12 14 13 14 14 14 14 16 16 16 18 18 18 18 18 18 18 18 18 18 18 18 19 19 19 19 19 19 20 20 22 21
14 15 15 13 13 12 11 10 10 12 12 13 14 15 14 15 15 16 16 16 17 18 18 18 18 18 18 18 18 18 19 19 19 19 19 19 20 19 19 19 19 20 22
14 15 15 14 13 12 11 10 11 13 13 13 14 15 15 15 16 17 17 18 18 18 18 18 18 18 19 19 19 19 19 19 20 19 20 20 20 19 19 19 19 19 21
14 15 15 14 14 13 13 12 12 13 14 14 15 15 15 16 17 17 17 18 18 19 18 18 18 19 19 19 19 19 19 20 20 20 20 20 19 20 20 20 20 20 20
14 16 15 15 15 15 15 15 13 13 14 15 15 15 16 17 17 17 18 18 19 19 18 18 18 18 19 19 19 20 20 19 20 20 20 20 19 21 21 21 20 20 20
16 16 16 16 16 16 15 15 15 14 15 15 15 16 17 17 17 18 18 19 19 19 19 18 19 19 19 19 19 19 19 19 19 19 20 20 20 20 21 21 21 20 19
15 16 17 16 16 15 15 15 15 15 16 16 15 16 17 17 17 18 18 19 18 19 19 19 19 19 19 19 19 19 19 19 19 19 19 19 19 20 20 20 20 20 20
15 16 16 16 16 16 15 15 15 16 16 16 16 16 17 17 17 18 19 19 19 19 19 19 20 20 20 20 20 19 19 19 19 19 18 19 19 17 18 19 19 19 20
14 14 15 16 16 16 15 15 15 16 16 16 16 16 17 17 18 18 19 19 19 19 19 20 20 20 20 17 16 18 18 18 19 19 19 18 18 16 14 14 14 16 19
12 13 14 15 15 15 15 15 15 16 17 17 17 18 17 17 18 18 19 19 19 19 20 20 20 20 20 15 14 14 18 18 18 18 18 18 18 18 18 15 12 12 11
12 13 13 14 14 15 15 15 16 17 17 17 17 18 17 18 18 19 19 19 19 19 20 20 19 19 18 15 13 13 17 18 18 18 18 18 18 17 18 18 17 17 16
11 11 12 13 15 15 15 16 17 17 17 17 17 17 17 17 18 19 19 19 19 19 19 19 19 18 18 14 13 13 15 16 17 17 17 17 17 15 13 16 18 16 15
13 13 13 15 16 17 16 17 17 18 17 17 17 17 16 17 18 18 18 18 18 19 18 18 18 17 16 14 13 13 14 16 16 16 16 15 15 14 13 14 15 16 14
15 15 16 16 17 17 17 18 18 18 17 17 17 17 16 17 17 17 17 18 18 18 18 18 17 16 16 16 13 11 14 15 15 16 16 15 13 11 10 9 12 13 12
16 17 17 18 18 18 17 18 18 18 18 18 17 17 16 16 16 16 17 17 17 18 18 18 17 17 17 16 14 11 11 12 14 15 15 15 12 10 9 9 8 8 8
16 17 18 18 19 19 18 19 19 18 18 17 17 16 16 16 16 16 17 17 16 16 17 17 17 16 18 17 13 12 11 11 12 14 14 12 11 10 9 8 8 8 9
19 19 18 19 20 20 18 18 17 16 15 16 16 16 15 15 15 15 15 15 15 16 16 16 16 15 19 19 18 16 14 12 12 12 15 12 10 9 10 12 11 12 11
20 19 18 19 21 20 21 20 19 17 16 17 18 16 16 15 16 18 16 16 18 15 16 16 16 19 19 19 17 17 19 19 17 20 24 22 20 18 17 16 14 13 13
18 18 19 20 21 21 22 22 21 19 18 20 20 19 19 20 20 20 21 16 16 14 15 15 17 22 16 14 12 12 12 12 12 22 24 22 19 17 16 16 17 17 18

GFSMW_con_lsi_063.txt.gz
Lid_Strength_Index
9 10 10 10 10 9 8 8 6 5 5 5 6 6 7 8 8 8 8 7 7 7 6 6 8 9 8 8 9 9 12 13 13 14 14 14 14 14 15 14 14 14 15
11 11 11 11 10 9 8 8 6 6 5 4 6 7 8 10 10 10 10 9 9 8 8 9 10 10 10 9 9 10 12 13 12 12 12 15 14 15 15 15 15 15 14
10 11 12 11 11 10 9 8 7 6 6 5 9 10 10 10 11 11 11 12 10 9 9 11 12 10 8 9 9 10 11 13 13 12 10 13 12 13 14 16 16 16 15
10 11 12 12 11 10 9 8 7 7 6 9 8 9 8 9 10 10 11 12 11 11 11 13 12 10 9 10 10 11 11 12 13 15 15 14 12 14 17 16 16 16 16
11 11 12 11 11 10 9 8 7 7 8 9 8 8 9 10 11 12 12 13 13 13 13 14 13 12 11 11 12 13 13 12 13 14 15 15 16 16 16 18 18 17 16
12 12 12 12 12 11 9 8 8 7 9 9 9 8 9 13 13 13 14 14 14 15 15 15 15 14 13 13 13 14 14 14 14 15 15 15 15 17 17 18 18 17 17
12 12 13 13 13 11 10 9 8 8 9 9 9 8 11 11 12 13 13 15 16 16 16 16 16 16 15 15 15 15 15 15 15 15 15 15 16 16 17 17 19 19 18
12 12 13 13 13 12 10 9 9 9 10 9 9 10 11 11 11 12 13 14 14 15 16 16 16 16 16 16 15 15 16 16 16 16 16 16 16 16 17 18 18 20 19
12 13 13 14 13 12 11 10 9 8 10 10 10 11 12 11 12 13 14 15 15 16 17 17 17 17 16 16 16 16 17 16 16 17 17 17 17 17 17 17 17 17 19
12 13 14 14 13 12 11 10 9 8 11 11 11 12 13 12 13 14 15 16 17 17 18 18 17 17 17 17 17 17 17 17 17 17 18 18 18 17 17 17 17 17 17
12 13 14 14 13 12 12 10 10 11 12 12 12 13 14 14 14 15 16 17 17 18 18 18 17 17 18 17 17 17 17 18 18 18 18 19 18 18 18 18 18 18 17
13 13 14 14 14 13 13 11 11 12 12 12 13 14 15 15 15 15 16 17 17 18 18 18 18 18 18 17 17 18 18 18 18 19 19 19 18 18 18 18 18 18 18
13 14 15 15 14 14 14 13 12 12 13 13 13 14 15 15 15 16 17 17 18 18 18 18 18 18 18 18 18 18 18 18 19 19 18 18 18 19 19 18 18 18 18
13 14 15 15 15 14 14 14 13 13 14 14 14 14 15 15 15 16 17 18 18 18 18 18 18 18 18 18 18 18 19 19 19 18 18 18 18 18 18 18 18 18 18
13 14 15 15 15 15 15 14 14 14 14 14 14 14 15 15 15 17 17 18 18 18 18 18 18 18 18 19 19 19 19 19 19 18 18 17 17 16 17 18 18 18 18
12 12 13 15 15 15 15 14 14 14 14 14 14 14 15 16 16 17 17 18 18 19 19 19 19 19 19 17 16 18 19 19 19 18 18 17 16 16 14 14 15 16 18
11 11 12 13 14 15 14 15 14 14 15 14 15 15 16 16 17 17 18 18 19 19 19 19 19 19 19 16 15 16 19 18 18 17 17 17 17 16 16 14 13 13 13
11 11 11 12 13 14 15 14 15 15 15 15 15 16 16 17 17 18 18 18 18 19 19 19 19 19 19 15 15 16 18 17 17 17 17 17 17 17 17 17 17 16 15
10 11 11 11 13 14 15 15 16 16 16 16 16 16 16 17 17 18 18 18 18 19 18 18 19 19 19 15 15 15 16 17 16 16 17 17 16 15 14 16 17 16 15
13 13 13 13 14 15 16 16 17 17 17 16 16 16 17 17 18 17 18 18 18 18 18 18 18 18 19 14 13 13 14 15 15 16 16 15 15 14 13 13 15 16 15
14 14 15 15 15 16 17 17 17 17 17 17 17 17 17 17 17 17 17 17 18 18 18 19 18 18 17 15 12 11 14 14 14 15 15 15 12 11 11 11 13 14 12
14 15 16 17 17 17 17 18 18 18 18 18 18 18 18 17 17 18 18 17 18 18 18 18 19 18 17 15 13 11 11 12 14 13 14 14 12 11 11 11 10 9 8
15 17 18 18 18 19 18 18 19 18 18 18 19 18 17 17 16 17 17 17 17 18 18 18 18 17 17 16 13 12 10 10 11 12 12 12 12 11 10 9 8 9 9
18 19 19 20 20 20 19 19 19 19 18 17 17 17 17 16 16 16 16 16 16 17 17 17 16 15 16 16 15 14 12 11 11 11 12 11 11 10 10 12 11 11 11
18 17 18 20 21 20 20 19 18 15 15 16 16 16 15 15 15 16 15 15 15 14 14 14 14 14 17 16 15 16 16 16 14 19 18 17 16 15 15 15 14 14 13
18 18 19 20 21 21 22 21 18 16 16 17 17 16 16 17 17 18 19 15 15 13 13 13 14 18 15 14 14 13 13 13 13 19 19 18 17 16 16 17 16 16 16

GFSMW_con_lsi_069.txt.gz
Lid_Strength_Index
4 3 3 3 2 1 1 1 1 1 0 1 1 1 1 0 1 1 0 0 2 1 1 3 4 4 5 7 7 11 12 12 11 12 12 12 12 12 12 12 12 12 12
4 4 3 3 3 3 2 2 2 2 2 2 1 1 1 1 1 1 3 2 3 2 3 4 5 5 7 8 10 12 12 12 11 11 12 15 14 13 13 12 13 13 12
5 4 3 4 3 4 3 3 3 3 3 2 2 2 2 2 3 2 3 5 5 4 4 5 5 6 7 9 11 11 11 13 12 10 10 13 13 15 14 13 13 13 13
4 4 4 3 4 3 3 3 3 3 3 3 3 3 3 4 4 4 4 6 6 6 5 4 5 6 6 7 10 9 10 11 12 10 9 9 10 14 17 14 14 13 13
4 4 4 4 3 3 3 3 3 4 4 3 3 3 4 3 3 3 4 6 8 7 6 7 6 6 7 8 9 10 9 10 10 10 11 11 10 9 13 17 16 14 14
4 4 4 4 4 3 3 3 4 4 4 3 3 3 4 3 3 3 5 7 8 9 9 8 8 8 8 8 9 10 9 10 9 9 10 11 12 13 13 14 16 16 15
5 5 5 6 6 5 5 4 4 5 4 4 4 4 4 3 3 4 5 8 10 10 10 10 9 8 8 8 8 9 9 10 10 9 11 11 11 12 12 14 16 16 16
6 5 5 5 5 6 6 5 5 5 5 5 4 4 4 4 3 4 5 5 7 8 9 11 10 9 8 8 8 9 10 10 10 9 11 13 13 13 13 14 16 17 17
5 5 5 5 5 6 6 6 6 6 5 5 5 5 4 4 4 4 5 6 6 7 8 10 11 11 10 9 9 10 10 10 10 11 12 13 14 14 14 14 14 15 18
5 5 5 5 6 6 6 6 6 6 6 5 5 5 5 5 4 5 5 6 7 8 9 10 12 12 11 12 11 12 12 12 12 13 14 15 15 15 15 15 15 15 15
6 5 5 6 6 6 6 6 6 6 6 6 5 6 6 5 5 6 6 6 7 9 11 13 13 14 14 13 13 13 14 14 14 14 15 15 15 16 16 16 16 16 15
6 6 6 6 7 7 6 6 6 6 6 6 6 6 6 6 6 6 7 8 10 13 12 14 14 15 15 14 14 14 15 15 16 16 16 17 16 17 17 16 16 16 16
5 6 6 7 6 6 6 6 6 6 6 6 7 7 7 7 8 8 9 11 12 14 15 15 15 16 16 16 15 15 15 15 16 16 17 17 17 18 17 17 17 17 18
6 5 5 6 6 6 6 7 7 6 7 7 7 8 7 7 8 8 10 12 13 15 15 15 15 16 16 16 17 17 16 16 16 16 16 17 17 17 17 18 17 17 17
6 6 6 5 5 6 7 7 7 7 7 7 8 8 8 8 8 9 10 12 13 15 15 16 16 17 17 17 17 17 17 17 17 17 17 17 17 15 16 18 18 17 16
6 6 5 5 6 6 7 7 7 8 7 8 8 8 9 10 11 12 13 14 15 16 16 17 17 17 18 15 14 16 17 17 18 18 18 17 17 16 15 16 15 15 15
6 6 5 5 5 6 7 7 7 8 8 9 10 11 11 12 13 14 15 15 16 16 17 17 17 17 17 15 14 15 17 18 18 18 18 17 17 17 17 16 14 14 13
5 5 5 5 5 6 6 7 8 9 10 11 11 12 12 13 13 14 15 15 15 16 17 17 17 17 17 14 14 15 17 17 17 17 17 17 17 18 17 16 15 15 14
5 7 7 8 8 8 8 10 11 11 11 12 12 12 12 13 14 14 15 15 15 16 16 16 17 17 17 14 14 16 17 17 17 17 16 15 17 15 14 16 16 16 15
8 9 9 9 10 10 12 12 12 12 12 12 12 12 13 13 14 14 15 15 15 16 16 16 16 16 17 14 14 16 16 17 17 16 16 15 14 13 13 15 16 16 15
10 10 11 12 13 13 13 13 13 14 13 13 14 14 13 14 13 14 14 15 16 17 17 17 17 17 15 14 13 15 16 16 17 17 16 14 12 12 12 12 14 14 12
11 12 13 14 14 14 14 14 14 14 14 14 14 14 14 14 14 14 15 15 16 17 18 18 18 17 16 15 13 13 15 15 16 16 15 14 12 11 11 11 11 11 11
13 14 15 15 15 15 15 14 15 15 15 15 15 14 14 14 14 15 15 16 16 17 18 18 18 18 17 15 13 13 13 14 15 13 12 12 11 10 10 10 9 10 11
14 14 15 16 17 16 15 15 15 15 15 15 15 15 15 14 14 14 14 15 15 16 17 17 17 17 17 16 15 14 13 13 12 12 12 11 11 11 11 12 11 11 10
14 15 16 17 17 16 16 15 14 14 14 15 14 14 13 14 14 14 14 14 14 14 15 15 15 16 17 16 15 14 13 13 12 12 12 12 12 12 13 12 11 11 13
15 16 17 17 18 17 17 16 15 14 14 14 14 13 13 13 13 14 14 12 13 13 13 13 13 14 13 13 13 12 12 11 11 14 15 15 14 14 14 14 14 13 15

GFSMW_con_lsi_072.txt.gz
Lid_Strength_Index
7 6 6 6 5 3 3 2 2 3 2 2 2 3 3 2 2 1 2 1 1 0 2 2 4 5 7 8 9 10 12 12 12 14 14 15 15 15 15 15 15 15 15
8 7 6 7 5 4 3 3 2 3 2 2 2 3 3 4 3 3 3 2 2 2 2 3 5 5 6 8 10 11 12 13 13 13 14 17 17 16 15 16 15 16 16
8 8 7 7 7 6 4 3 2 2 2 2 3 5 5 5 5 4 4 4 4 3 2 4 5 5 6 8 11 11 12 13 13 12 11 16 17 18 17 17 16 17 17
7 7 7 7 7 6 5 4 3 4 3 3 3 4 4 5 5 5 5 3 4 4 2 4 4 5 5 7 11 10 10 12 14 13 11 11 15 17 20 18 17 16 16
8 8 7 7 6 6 6 6 5 5 5 4 4 4 5 6 6 6 6 6 5 4 4 3 5 5 6 7 9 10 10 11 12 12 12 12 13 15 18 20 19 18 17
8 8 7 7 7 6 6 6 6 5 5 5 4 5 5 6 7 7 6 6 6 6 5 5 5 5 6 7 8 9 10 10 10 11 11 12 13 16 17 19 20 19 18
8 8 8 8 8 7 7 6 6 7 6 6 5 5 5 6 7 6 7 7 8 8 8 7 6 6 6 6 8 9 10 10 10 10 11 11 13 14 16 18 20 20 19
9 8 8 8 8 8 7 7 7 7 7 6 6 5 5 6 6 6 6 7 7 7 7 8 7 7 7 7 8 9 10 9 10 10 11 12 13 15 16 18 19 21 20
8 8 8 8 8 8 8 7 7 7 7 7 6 6 6 6 6 6 7 7 7 8 9 9 8 8 7 7 8 9 9 9 10 10 11 14 15 15 17 17 18 19 21
8 8 8 8 8 8 8 8 7 7 7 7 7 6 6 6 6 6 7 8 8 8 9 9 9 9 9 8 8 9 9 10 11 12 14 15 16 16 16 17 18 17 18
9 8 8 8 8 8 8 8 8 8 7 7 7 7 7 7 6 7 7 8 9 9 10 10 10 11 11 10 9 11 11 11 13 14 15 16 16 17 17 18 18 18 17
8 8 8 8 9 9 8 8 8 8 8 7 7 7 7 7 7 8 8 9 10 12 12 13 12 13 12 12 11 12 12 13 14 15 16 16 17 17 17 18 18 18 17
8 8 9 9 9 9 9 9 8 8 8 8 8 8 8 8 8 8 9 10 11 13 14 15 14 14 14 14 13 12 13 13 14 15 16 17 17 18 18 18 18 18 18
8 8 8 9 8 8 9 9 9 8 8 8 8 9 9 8 8 9 10 12 13 15 16 15 15 15 15 15 15 14 14 14 15 15 16 17 17 18 18 18 18 18 19
9 9 9 8 8 8 9 9 9 9 8 9 8 8 8 9 9 11 12 14 15 15 16 16 16 16 16 16 16 15 15 16 16 17 17 17 17 16 16 17 18 18 18
8 8 8 8 8 8 8 8 9 9 9 8 9 9 11 11 12 12 13 14 15 16 16 17 17 17 17 15 14 15 16 16 17 17 18 17 16 15 15 15 15 16 18
7 7 7 7 7 8 8 8 9 9 11 11 12 13 13 13 13 14 14 15 16 17 17 17 17 17 17 14 13 14 16 17 17 17 18 17 16 16 16 15 14 15 15
7 8 8 8 8 9 9 10 11 12 12 13 14 15 14 14 15 15 15 16 16 17 17 17 17 16 17 14 13 14 17 17 17 17 17 17 17 17 17 16 17 17 16
8 9 9 10 10 10 12 14 14 13 13 13 13 14 15 15 15 16 16 17 17 17 16 16 17 16 17 14 13 15 16 17 17 17 16 16 16 15 15 17 17 16 15
10 11 11 11 12 14 15 15 14 15 14 14 14 14 15 16 16 16 17 17 17 16 16 16 15 16 16 14 13 15 16 17 17 17 16 15 15 14 14 17 17 17 17
11 12 13 13 14 15 15 15 15 16 15 16 16 16 16 17 17 18 18 17 16 16 16 16 16 16 16 14 13 13 16 16 17 17 16 15 13 13 12 14 16 15 14
12 13 15 14 15 15 15 16 16 16 17 17 17 18 19 17 17 16 15 16 16 16 17 17 17 16 15 14 13 13 14 14 16 16 15 14 12 12 12 12 12 11 11
13 14 16 16 16 17 16 16 16 16 16 17 19 19 19 18 18 18 16 16 16 16 17 17 17 17 16 15 12 12 13 13 15 15 15 14 13 12 11 11 11 12 12
15 16 16 17 18 17 16 17 16 17 16 16 17 18 18 18 17 17 17 17 16 16 16 17 17 17 17 16 14 13 13 13 14 13 14 13 13 11 11 12 11 11 12
15 16 17 17 17 17 17 15 16 16 16 16 15 15 15 15 16 16 17 17 17 15 16 15 15 16 17 16 14 13 13 13 13 13 13 13 14 13 13 14 13 14 15
16 17 18 18 18 18 19 19 16 17 17 16 14 14 13 15 17 17 14 12 12 11 11 11 13 14 13 13 13 12 12 12 11 14 14 14 13 13 14 15 16 15 15

GFSMW_con_lsi_075.txt.gz
Lid_Strength_Index
8 8 7 7 6 3 3 2 2 3 2 3 3 3 3 3 4 2 2 1 1 1 2 3 4 5 7 8 9 10 11 12 12 13 14 14 15 16 16 16 16 16 15
9 8 8 8 7 4 2 2 2 3 2 2 2 2 3 5 2 4 3 2 1 1 2 3 4 5 6 8 10 11 11 12 13 14 14 17 17 16 16 16 16 17 16
9 9 9 9 7 6 3 2 2 3 2 2 4 6 5 6 6 5 4 4 2 1 2 3 4 5 6 8 9 11 11 12 13 13 12 16 17 18 17 17 17 17 17
10 9 9 9 9 6 4 2 2 2 3 3 4 4 3 3 3 2 4 6 4 2 2 3 4 5 5 7 10 10 10 11 13 12 11 12 15 18 20 18 17 18 18
10 9 9 9 8 8 7 5 4 4 3 3 4 4 3 3 7 7 7 8 8 4 3 3 4 4 5 6 8 10 10 10 11 11 11 12 14 16 17 19 19 18 18
8 9 8 8 8 8 8 7 5 5 5 3 5 5 4 7 7 7 7 8 7 5 4 4 3 3 4 6 8 9 9 10 9 10 10 11 13 15 17 18 18 18 18
9 9 9 8 9 8 8 8 7 6 6 6 6 6 6 6 6 6 6 7 7 7 5 4 4 4 4 5 7 9 9 10 10 10 10 10 11 12 14 17 18 19 18
10 10 9 9 9 9 8 8 7 8 7 7 6 6 6 5 5 6 6 6 6 6 6 6 4 4 5 5 6 8 8 9 9 9 10 10 11 12 14 17 18 19 19
9 9 9 9 8 9 8 8 8 8 7 7 7 6 6 6 6 6 6 6 6 7 7 6 6 6 6 6 7 7 9 9 9 9 10 10 11 13 14 15 16 17 20
10 9 9 9 9 9 9 8 8 8 8 8 7 7 6 6 6 6 7 6 7 7 8 7 7 7 7 7 7 8 9 9 9 9 10 10 12 12 14 15 16 17 17
9 9 9 9 9 9 9 9 8 8 8 8 8 8 7 7 7 6 7 7 8 8 9 9 8 8 8 8 8 8 9 10 9 9 10 11 13 14 15 16 16 17 17
9 9 9 9 9 9 9 9 9 8 8 8 8 8 7 7 7 7 8 8 8 10 9 10 10 9 9 9 8 9 9 10 11 11 12 12 14 15 15 16 17 17 17
9 9 9 9 9 9 9 9 9 8 8 8 8 8 8 8 8 8 9 9 9 10 12 12 12 11 11 11 10 10 10 10 11 11 13 14 15 15 16 16 17 17 17
10 10 10 10 9 9 10 10 9 9 9 9 9 9 8 8 8 9 9 10 11 12 13 13 13 14 13 13 12 12 12 12 12 13 13 15 15 15 16 17 17 18 18
9 9 9 9 9 9 9 9 9 9 9 9 9 8 8 9 9 10 11 12 13 13 14 15 15 15 14 14 14 13 13 14 15 15 15 15 16 15 16 17 17 17 18
8 8 8 8 9 9 9 9 9 9 9 9 9 9 10 11 11 12 12 13 14 14 15 15 16 16 15 14 12 13 14 14 15 16 16 16 16 15 14 14 15 16 18
10 9 9 9 9 10 10 10 10 10 11 12 12 12 12 13 12 13 13 13 14 15 15 16 16 16 15 13 12 13 15 15 15 16 16 17 16 16 15 14 14 15 14
9 9 9 10 10 10 11 12 13 13 12 13 14 14 14 14 14 15 14 15 15 16 16 17 17 16 16 14 12 13 15 15 15 16 16 16 16 15 16 16 16 16 16
8 9 10 10 11 11 13 14 14 14 13 13 13 14 15 15 15 15 16 17 18 18 18 17 18 16 16 14 12 13 16 16 16 16 16 15 16 14 14 16 16 17 16
9 9 11 11 13 13 15 15 14 15 14 14 14 13 15 16 16 15 17 18 17 17 16 15 15 15 16 13 12 12 15 16 16 16 16 15 15 13 13 16 16 16 16
10 11 12 12 13 14 15 15 15 15 15 15 15 16 16 17 17 17 15 15 15 15 16 16 16 16 16 14 12 12 15 16 16 16 16 15 13 12 12 14 15 15 15
10 11 13 13 13 15 16 15 15 15 16 17 16 17 19 17 16 13 14 15 15 16 16 17 17 16 15 14 12 11 14 14 15 16 15 14 12 12 11 13 13 12 14
11 12 14 14 14 16 16 17 17 17 17 19 20 20 19 18 18 14 15 15 16 17 17 17 17 17 16 15 12 11 12 12 15 14 14 13 11 11 11 11 11 13 13
14 14 15 16 16 17 17 16 16 16 19 18 18 18 19 19 19 17 17 16 16 17 17 17 17 17 17 17 14 13 12 13 14 13 13 12 12 12 12 13 12 12 12
15 16 15 16 18 19 18 16 14 17 18 18 16 15 17 18 17 17 20 18 18 16 17 18 18 18 18 16 13 12 13 13 13 13 13 13 14 14 13 13 13 12 13
14 16 17 18 20 20 19 19 15 14 18 14 14 14 15 15 15 15 14 11 11 11 11 11 13 15 14 12 11 10 10 10 10 12 13 13 13 14 14 13 14 15 15